Time,TemperatureF,DewpointF,PressureIn,WindDirection,WindDirectionDegrees,WindSpeedMPH,WindSpeedGustMPH,Humidity,HourlyPrecipIn,Conditions,Clouds,dailyrainin,SoftwareType,DateUTC
2013-08-25 00:05:00,55.3,51.0,30.24,North,0,0.0,0.0,85,0.00,,,0.00,vanprod,2013-08-25 04:05:00,
2013-08-25 00:15:00,55.0,51.0,30.25,North,0,0.0,0.0,85,0.00,,,0.00,vanprod,2013-08-25 04:15:00,
2013-08-25 00:25:00,54.7,51.0,30.25,North,0,0.0,0.0,86,0.00,,,0.00,vanprod,2013-08-25 04:25:00,
2013-08-25 00:35:00,54.5,51.0,30.24,North,0,0.0,0.0,87,0.00,,,0.00,vanprod,2013-08-25 04:35:00,
2013-08-25 00:45:00,54.7,51.0,30.24,North,0,0.0,0.0,87,0.00,,,0.00,vanprod,2013-08-25 04:45:00,
2013-08-25 00:55:00,54.5,51.0,30.24,North,0,0.0,0.0,87,0.00,,,0.00,vanprod,2013-08-25 04:55:00,
2013-08-25 01:05:00,54.4,51.0,30.24,North,0,0.0,0.0,87,0.00,,,0.00,vanprod,2013-08-25 05:05:00,
2013-08-25 01:15:00,54.1,51.0,30.24,North,0,0.0,0.0,88,0.00,,,0.00,vanprod,2013-08-25 05:15:00,
2013-08-25 01:25:00,53.8,50.0,30.24,North,0,0.0,0.0,88,0.00,,,0.00,vanprod,2013-08-25 05:25:00,
2013-08-25 01:35:00,53.6,50.0,30.24,North,0,0.0,0.0,88,0.00,,,0.00,vanprod,2013-08-25 05:35:00,
2013-08-25 01:45:00,53.5,50.0,30.23,North,0,0.0,0.0,89,0.00,,,0.00,vanprod,2013-08-25 05:45:00,
2013-08-25 01:55:00,53.2,50.0,30.23,North,0,0.0,0.0,89,0.00,,,0.00,vanprod,2013-08-25 05:55:00,
2013-08-25 02:05:00,53.2,50.0,30.23,North,0,0.0,0.0,90,0.00,,,0.00,vanprod,2013-08-25 06:05:00,
2013-08-25 02:15:00,53.1,51.0,30.23,North,0,0.0,0.0,91,0.00,,,0.00,vanprod,2013-08-25 06:15:00,
2013-08-25 02:25:00,52.9,50.0,30.23,North,0,0.0,0.0,91,0.00,,,0.00,vanprod,2013-08-25 06:25:00,
2013-08-25 02:35:00,52.8,50.0,30.23,North,0,0.0,0.0,91,0.00,,,0.00,vanprod,2013-08-25 06:35:00,
2013-08-25 02:45:00,52.8,50.0,30.23,North,0,0.0,0.0,91,0.00,,,0.00,vanprod,2013-08-25 06:45:00,
2013-08-25 02:55:00,52.6,50.0,30.23,North,0,0.0,0.0,91,0.00,,,0.00,vanprod,2013-08-25 06:55:00,
2013-08-25 03:05:00,52.6,50.0,30.22,North,0,0.0,0.0,92,0.00,,,0.00,vanprod,2013-08-25 07:05:00,
2013-08-25 03:15:00,52.5,50.0,30.23,North,0,0.0,0.0,92,0.00,,,0.00,vanprod,2013-08-25 07:15:00,
2013-08-25 03:25:00,52.3,50.0,30.23,North,0,0.0,0.0,92,0.00,,,0.00,vanprod,2013-08-25 07:25:00,
2013-08-25 03:35:00,52.2,50.0,30.23,North,0,0.0,0.0,92,0.00,,,0.00,vanprod,2013-08-25 07:35:00,
2013-08-25 03:45:00,52.2,50.0,30.23,North,0,0.0,0.0,92,0.00,,,0.00,vanprod,2013-08-25 07:45:00,
2013-08-25 03:55:00,52.0,50.0,30.23,North,0,0.0,0.0,92,0.00,,,0.00,vanprod,2013-08-25 07:55:00,
2013-08-25 04:05:00,52.0,50.0,30.23,North,0,0.0,0.0,92,0.00,,,0.00,vanprod,2013-08-25 08:05:00,
2013-08-25 04:15:00,52.0,50.0,30.23,North,0,0.0,0.0,92,0.00,,,0.00,vanprod,2013-08-25 08:15:00,
2013-08-25 04:25:00,51.9,50.0,30.23,North,0,0.0,0.0,92,0.00,,,0.00,vanprod,2013-08-25 08:25:00,
2013-08-25 04:35:00,51.6,49.0,30.24,North,0,0.0,0.0,92,0.00,,,0.00,vanprod,2013-08-25 08:35:00,
2013-08-25 04:45:00,51.4,49.0,30.24,North,0,0.0,0.0,92,0.00,,,0.00,vanprod,2013-08-25 08:45:00,
2013-08-25 04:55:00,51.4,49.0,30.24,North,0,0.0,0.0,93,0.00,,,0.00,vanprod,2013-08-25 08:55:00,
2013-08-25 05:05:00,51.4,49.0,30.25,North,0,0.0,0.0,93,0.00,,,0.00,vanprod,2013-08-25 09:05:00,
2013-08-25 05:15:00,51.3,49.0,30.25,North,0,0.0,0.0,93,0.00,,,0.00,vanprod,2013-08-25 09:15:00,
2013-08-25 05:25:00,51.3,49.0,30.25,North,0,0.0,0.0,93,0.00,,,0.00,vanprod,2013-08-25 09:25:00,
2013-08-25 05:35:00,51.1,49.0,30.25,North,0,0.0,0.0,93,0.00,,,0.00,vanprod,2013-08-25 09:35:00,
2013-08-25 05:45:00,50.8,49.0,30.27,North,0,0.0,0.0,93,0.00,,,0.00,vanprod,2013-08-25 09:45:00,
2013-08-25 05:55:00,50.7,49.0,30.27,North,0,0.0,0.0,93,0.00,,,0.00,vanprod,2013-08-25 09:55:00,
2013-08-25 06:05:00,50.7,49.0,30.27,North,0,0.0,0.0,93,0.00,,,0.00,vanprod,2013-08-25 10:05:00,
2013-08-25 06:15:00,50.7,49.0,30.28,North,0,0.0,0.0,93,0.00,,,0.00,vanprod,2013-08-25 10:15:00,
2013-08-25 06:25:00,50.5,49.0,30.28,North,0,0.0,0.0,93,0.00,,,0.00,vanprod,2013-08-25 10:25:00,
2013-08-25 06:35:00,50.5,49.0,30.28,North,0,0.0,0.0,93,0.00,,,0.00,vanprod,2013-08-25 10:35:00,
2013-08-25 06:45:00,50.7,49.0,30.28,North,0,0.0,0.0,94,0.00,,,0.00,vanprod,2013-08-25 10:45:00,
2013-08-25 06:55:00,50.7,49.0,30.28,North,0,0.0,0.0,93,0.00,,,0.00,vanprod,2013-08-25 10:55:00,
2013-08-25 07:05:00,50.7,49.0,30.28,North,0,0.0,0.0,94,0.00,,,0.00,vanprod,2013-08-25 11:05:00,
2013-08-25 07:15:00,51.0,49.0,30.28,North,0,0.0,0.0,94,0.00,,,0.00,vanprod,2013-08-25 11:15:00,
2013-08-25 07:25:00,51.1,49.0,30.28,North,0,0.0,0.0,94,0.00,,,0.00,vanprod,2013-08-25 11:25:00,
2013-08-25 07:35:00,51.6,50.0,30.29,North,0,0.0,0.0,95,0.00,,,0.00,vanprod,2013-08-25 11:35:00,
2013-08-25 07:45:00,52.2,51.0,30.29,North,0,0.0,0.0,95,0.00,,,0.00,vanprod,2013-08-25 11:45:00,
2013-08-25 07:55:00,52.6,51.0,30.29,North,0,0.0,0.0,95,0.00,,,0.00,vanprod,2013-08-25 11:55:00,
2013-08-25 08:05:00,53.3,52.0,30.29,North,0,0.0,0.0,95,0.00,,,0.00,vanprod,2013-08-25 12:05:00,
2013-08-25 08:15:00,53.8,52.0,30.29,North,0,0.0,0.0,95,0.00,,,0.00,vanprod,2013-08-25 12:15:00,
2013-08-25 08:25:00,54.7,53.0,30.29,North,0,0.0,0.0,95,0.00,,,0.00,vanprod,2013-08-25 12:25:00,
2013-08-25 08:35:00,55.3,54.0,30.29,North,0,0.0,0.0,95,0.00,,,0.00,vanprod,2013-08-25 12:35:00,
2013-08-25 08:45:00,55.9,54.0,30.28,North,0,0.0,0.0,95,0.00,,,0.00,vanprod,2013-08-25 12:45:00,
2013-08-25 08:55:00,56.9,55.0,30.28,North,0,0.0,0.0,94,0.00,,,0.00,vanprod,2013-08-25 12:55:00,
2013-08-25 09:05:00,57.3,55.0,30.28,North,0,0.0,0.0,92,0.00,,,0.00,vanprod,2013-08-25 13:05:00,
2013-08-25 09:15:00,58.0,56.0,30.27,North,0,0.0,0.0,92,0.00,,,0.00,vanprod,2013-08-25 13:15:00,
2013-08-25 09:25:00,58.9,57.0,30.27,North,0,0.0,0.0,92,0.00,,,0.00,vanprod,2013-08-25 13:25:00,
2013-08-25 09:35:00,59.8,58.0,30.28,North,0,0.0,0.0,93,0.00,,,0.00,vanprod,2013-08-25 13:35:00,
2013-08-25 09:45:00,60.7,58.0,30.28,North,0,0.0,0.0,92,0.00,,,0.00,vanprod,2013-08-25 13:45:00,
2013-08-25 09:55:00,61.8,59.0,30.28,North,0,0.0,0.0,89,0.00,,,0.00,vanprod,2013-08-25 13:55:00,
2013-08-25 10:05:00,62.6,59.0,30.28,North,0,0.0,0.0,87,0.00,,,0.00,vanprod,2013-08-25 14:05:00,
2013-08-25 10:15:00,63.4,59.0,30.27,North,0,0.0,0.0,84,0.00,,,0.00,vanprod,2013-08-25 14:15:00,
2013-08-25 10:25:00,64.2,59.0,30.27,North,0,0.0,0.0,82,0.00,,,0.00,vanprod,2013-08-25 14:25:00,
2013-08-25 10:35:00,65.0,57.0,30.27,North,0,0.0,1.0,74,0.00,,,0.00,vanprod,2013-08-25 14:35:00,
2013-08-25 10:45:00,66.3,57.0,30.27,North,0,0.0,0.0,72,0.00,,,0.00,vanprod,2013-08-25 14:45:00,
2013-08-25 10:55:00,67.3,57.0,30.27,North,0,0.0,0.0,69,0.00,,,0.00,vanprod,2013-08-25 14:55:00,
2013-08-25 11:05:00,67.8,55.0,30.26,North,0,0.0,0.0,63,0.00,,,0.00,vanprod,2013-08-25 15:05:00,
2013-08-25 11:15:00,68.6,56.0,30.25,North,0,0.0,0.0,64,0.00,,,0.00,vanprod,2013-08-25 15:15:00,
2013-08-25 11:25:00,69.6,56.0,30.25,North,0,0.0,0.0,62,0.00,,,0.00,vanprod,2013-08-25 15:25:00,
2013-08-25 11:35:00,70.6,57.0,30.25,North,0,0.0,0.0,61,0.00,,,0.00,vanprod,2013-08-25 15:35:00,
2013-08-25 11:45:00,70.8,58.0,30.24,North,0,0.0,1.0,64,0.00,,,0.00,vanprod,2013-08-25 15:45:00,
2013-08-25 11:55:00,71.1,58.0,30.24,North,0,0.0,0.0,62,0.00,,,0.00,vanprod,2013-08-25 15:55:00,
2013-08-25 12:05:00,71.3,56.0,30.24,North,0,0.0,2.0,58,0.00,,,0.00,vanprod,2013-08-25 16:05:00,
2013-08-25 12:15:00,71.8,54.0,30.23,North,0,0.0,3.0,54,0.00,,,0.00,vanprod,2013-08-25 16:15:00,
2013-08-25 12:25:00,72.1,56.0,30.23,North,0,1.0,3.0,57,0.00,,,0.00,vanprod,2013-08-25 16:25:00,
2013-08-25 12:35:00,72.7,55.0,30.22,North,0,1.0,0.0,54,0.00,,,0.00,vanprod,2013-08-25 16:35:00,
2013-08-25 12:45:00,73.2,57.0,30.22,North,0,0.0,0.0,57,0.00,,,0.00,vanprod,2013-08-25 16:45:00,
2013-08-25 12:55:00,73.5,56.0,30.22,North,0,0.0,0.0,55,0.00,,,0.00,vanprod,2013-08-25 16:55:00,
2013-08-25 13:05:00,73.5,58.0,30.21,North,0,0.0,0.0,57,0.00,,,0.00,vanprod,2013-08-25 17:05:00,
2013-08-25 13:15:00,73.7,56.0,30.21,North,0,0.0,0.0,54,0.00,,,0.00,vanprod,2013-08-25 17:15:00,
2013-08-25 13:25:00,73.7,57.0,30.21,North,0,1.0,0.0,55,0.00,,,0.00,vanprod,2013-08-25 17:25:00,
2013-08-25 13:35:00,73.9,55.0,30.21,North,0,0.0,0.0,52,0.00,,,0.00,vanprod,2013-08-25 17:35:00,
2013-08-25 13:45:00,74.0,55.0,30.20,North,0,0.0,0.0,52,0.00,,,0.00,vanprod,2013-08-25 17:45:00,
2013-08-25 13:55:00,74.4,56.0,30.20,North,0,1.0,0.0,52,0.00,,,0.00,vanprod,2013-08-25 17:55:00,
2013-08-25 14:05:00,74.6,55.0,30.20,North,0,0.0,0.0,51,0.00,,,0.00,vanprod,2013-08-25 18:05:00,
2013-08-25 14:15:00,74.6,56.0,30.20,North,0,0.0,0.0,52,0.00,,,0.00,vanprod,2013-08-25 18:15:00,
2013-08-25 14:25:00,74.7,56.0,30.20,North,0,0.0,0.0,52,0.00,,,0.00,vanprod,2013-08-25 18:25:00,
2013-08-25 14:35:00,74.9,57.0,30.19,North,0,0.0,0.0,54,0.00,,,0.00,vanprod,2013-08-25 18:35:00,
2013-08-25 14:45:00,74.9,56.0,30.18,North,0,1.0,0.0,52,0.00,,,0.00,vanprod,2013-08-25 18:45:00,
2013-08-25 14:55:00,74.7,57.0,30.18,North,0,0.0,0.0,53,0.00,,,0.00,vanprod,2013-08-25 18:55:00,
2013-08-25 15:05:00,74.6,55.0,30.18,North,0,1.0,0.0,51,0.00,,,0.00,vanprod,2013-08-25 19:05:00,
2013-08-25 15:15:00,74.2,54.0,30.18,North,0,0.0,1.0,50,0.00,,,0.00,vanprod,2013-08-25 19:15:00,
2013-08-25 15:25:00,74.4,56.0,30.18,North,0,0.0,0.0,53,0.00,,,0.00,vanprod,2013-08-25 19:25:00,
2013-08-25 15:35:00,74.2,57.0,30.16,North,0,0.0,1.0,54,0.00,,,0.00,vanprod,2013-08-25 19:35:00,
2013-08-25 15:45:00,74.2,57.0,30.16,North,0,1.0,0.0,55,0.00,,,0.00,vanprod,2013-08-25 19:45:00,
2013-08-25 15:55:00,74.2,56.0,30.16,North,0,0.0,0.0,52,0.00,,,0.00,vanprod,2013-08-25 19:55:00,
2013-08-25 16:05:00,74.0,58.0,30.16,North,0,0.0,0.0,57,0.00,,,0.00,vanprod,2013-08-25 20:05:00,
2013-08-25 16:15:00,73.7,57.0,30.15,North,0,0.0,0.0,55,0.00,,,0.00,vanprod,2013-08-25 20:15:00,
2013-08-25 16:25:00,73.5,58.0,30.15,North,0,0.0,0.0,57,0.00,,,0.00,vanprod,2013-08-25 20:25:00,
2013-08-25 16:35:00,73.3,56.0,30.15,North,0,0.0,0.0,55,0.00,,,0.00,vanprod,2013-08-25 20:35:00,
2013-08-25 16:45:00,73.2,58.0,30.15,North,0,0.0,0.0,59,0.00,,,0.00,vanprod,2013-08-25 20:45:00,
2013-08-25 16:55:00,73.0,57.0,30.15,North,0,0.0,0.0,57,0.00,,,0.00,vanprod,2013-08-25 20:55:00,
2013-08-25 17:05:00,73.0,58.0,30.14,North,0,0.0,0.0,60,0.00,,,0.00,vanprod,2013-08-25 21:05:00,
2013-08-25 17:15:00,72.8,58.0,30.13,North,0,0.0,0.0,60,0.00,,,0.00,vanprod,2013-08-25 21:15:00,
2013-08-25 17:25:00,72.8,59.0,30.13,North,0,0.0,0.0,61,0.00,,,0.00,vanprod,2013-08-25 21:25:00,
2013-08-25 17:35:00,72.7,60.0,30.13,North,0,0.0,0.0,63,0.00,,,0.00,vanprod,2013-08-25 21:35:00,
2013-08-25 17:45:00,72.3,59.0,30.13,North,0,0.0,0.0,63,0.00,,,0.00,vanprod,2013-08-25 21:45:00,
2013-08-25 17:55:00,72.0,59.0,30.13,North,0,0.0,0.0,64,0.00,,,0.00,vanprod,2013-08-25 21:55:00,
2013-08-25 18:05:00,71.6,58.0,30.12,North,0,0.0,0.0,62,0.00,,,0.00,vanprod,2013-08-25 22:05:00,
2013-08-25 18:15:00,71.3,59.0,30.11,North,0,0.0,0.0,64,0.00,,,0.00,vanprod,2013-08-25 22:15:00,
2013-08-25 18:25:00,70.9,59.0,30.11,North,0,0.0,0.0,65,0.00,,,0.00,vanprod,2013-08-25 22:25:00,
2013-08-25 18:35:00,70.8,59.0,30.11,North,0,0.0,0.0,66,0.00,,,0.00,vanprod,2013-08-25 22:35:00,
2013-08-25 18:45:00,70.3,60.0,30.11,North,0,0.0,0.0,69,0.00,,,0.00,vanprod,2013-08-25 22:45:00,
2013-08-25 18:55:00,69.6,59.0,30.11,North,0,0.0,0.0,68,0.00,,,0.00,vanprod,2013-08-25 22:55:00,
2013-08-25 19:05:00,69.1,59.0,30.10,North,0,0.0,0.0,69,0.00,,,0.00,vanprod,2013-08-25 23:05:00,
2013-08-25 19:15:00,68.6,59.0,30.10,North,0,0.0,0.0,71,0.00,,,0.00,vanprod,2013-08-25 23:15:00,
2013-08-25 19:25:00,67.9,59.0,30.10,North,0,0.0,0.0,73,0.00,,,0.00,vanprod,2013-08-25 23:25:00,
2013-08-25 19:35:00,67.3,60.0,30.10,North,0,0.0,0.0,77,0.00,,,0.00,vanprod,2013-08-25 23:35:00,
2013-08-25 19:45:00,66.8,59.0,30.10,North,0,0.0,0.0,76,0.00,,,0.00,vanprod,2013-08-25 23:45:00,
2013-08-25 19:55:00,66.3,59.0,30.10,North,0,0.0,0.0,77,0.00,,,0.00,vanprod,2013-08-25 23:55:00,
2013-08-25 20:05:00,65.8,59.0,30.10,North,0,0.0,0.0,79,0.00,,,0.00,vanprod,2013-08-26 00:05:00,
2013-08-25 20:15:00,65.3,58.0,30.10,North,0,0.0,0.0,78,0.00,,,0.00,vanprod,2013-08-26 00:15:00,
2013-08-25 20:25:00,65.0,58.0,30.10,North,0,0.0,0.0,79,0.00,,,0.00,vanprod,2013-08-26 00:25:00,
2013-08-25 20:35:00,64.7,57.0,30.10,North,0,0.0,0.0,77,0.00,,,0.00,vanprod,2013-08-26 00:35:00,
2013-08-25 20:45:00,64.5,58.0,30.10,North,0,0.0,0.0,78,0.00,,,0.00,vanprod,2013-08-26 00:45:00,
2013-08-25 20:55:00,64.3,58.0,30.10,North,0,0.0,0.0,79,0.00,,,0.00,vanprod,2013-08-26 00:55:00,
2013-08-25 21:05:00,64.3,58.0,30.10,North,0,0.0,0.0,80,0.00,,,0.00,vanprod,2013-08-26 01:05:00,
2013-08-25 21:15:00,64.0,57.0,30.10,North,0,0.0,0.0,79,0.00,,,0.00,vanprod,2013-08-26 01:15:00,
2013-08-25 21:25:00,63.9,58.0,30.10,North,0,0.0,0.0,80,0.00,,,0.00,vanprod,2013-08-26 01:25:00,
2013-08-25 21:35:00,63.7,57.0,30.10,North,0,0.0,0.0,79,0.00,,,0.00,vanprod,2013-08-26 01:35:00,
2013-08-25 21:45:00,63.4,57.0,30.10,North,0,0.0,0.0,79,0.00,,,0.00,vanprod,2013-08-26 01:45:00,
2013-08-25 21:55:00,63.2,57.0,30.10,North,0,0.0,0.0,80,0.00,,,0.00,vanprod,2013-08-26 01:55:00,
2013-08-25 22:05:00,62.9,57.0,30.09,North,0,0.0,0.0,80,0.00,,,0.00,vanprod,2013-08-26 02:05:00,
2013-08-25 22:15:00,62.6,56.0,30.09,North,0,0.0,0.0,80,0.00,,,0.00,vanprod,2013-08-26 02:15:00,
2013-08-25 22:25:00,62.4,57.0,30.09,North,0,0.0,0.0,81,0.00,,,0.00,vanprod,2013-08-26 02:25:00,
2013-08-25 22:35:00,62.1,56.0,30.09,North,0,0.0,0.0,81,0.00,,,0.00,vanprod,2013-08-26 02:35:00,
2013-08-25 22:45:00,62.0,56.0,30.09,North,0,0.0,0.0,82,0.00,,,0.00,vanprod,2013-08-26 02:45:00,
2013-08-25 22:55:00,62.0,57.0,30.09,North,0,0.0,0.0,83,0.00,,,0.00,vanprod,2013-08-26 02:55:00,
2013-08-25 23:05:00,61.8,57.0,30.09,North,0,0.0,0.0,83,0.00,,,0.00,vanprod,2013-08-26 03:05:00,
2013-08-25 23:15:00,61.8,57.0,30.09,North,0,0.0,0.0,83,0.00,,,0.00,vanprod,2013-08-26 03:15:00,
2013-08-25 23:25:00,61.8,57.0,30.09,North,0,0.0,0.0,84,0.00,,,0.00,vanprod,2013-08-26 03:25:00,
2013-08-25 23:35:00,61.8,57.0,30.09,North,0,0.0,0.0,84,0.00,,,0.00,vanprod,2013-08-26 03:35:00,
2013-08-25 23:45:00,62.0,57.0,30.08,North,0,0.0,0.0,84,0.00,,,0.00,vanprod,2013-08-26 03:45:00,
2013-08-25 23:55:00,62.1,58.0,30.08,North,0,0.0,0.0,85,0.00,,,0.00,vanprod,2013-08-26 03:55:00,